COSMOS 2251 DEB, 36441

Orbit data source: Space-Track

COSMOS 2251 DEB, 36441 is space debris in LEO originally from a launch on Wed, 16 Jun 1993 UTC launched from the Plesetsk Missile And Space Complex (PKMTR). The debris from Iridium 33, an American commercial communications satellite, has been tracked extensively since its accidental collision with the defunct Russian satellite Cosmos 2251 in 2009. This event, occurring at high speed in low Earth orbit (LEO), generated thousands of pieces of space debris, significantly increasing the risk of further collisions. The Iridium 33 debris cloud has impacted space traffic management and orbital debris mitigation strategies, making it a subject of ongoing study in space situational awareness.

Loading next visibility...
Identifier
36441, 1993-036BAQ
Orbit
LEO
Country
Flag of CISCIS
Related business
Manufacturer
Unknown
Mission
Spacecraft
Bus & Motor
Unknown
Mass
Unknown
Launch date (UTC)
1993-06-16 (33 years ago)
Launch vehicle
Unknown
Launch site
Plesetsk Missile And Space Complex (PKMTR)
Object type
Payload
Rocket body
Debris
Shape & HBR
Unknown shape, 0.1 m
Radar Cross Section
Small (<0.1 m²)

Expand to show TLE details & history
Last TLE update: 1 day ago

TLE from 1 day ago
0 COSMOS 2251 DEB
1 36441U 93036BAQ 26120.56244186  .00007538  00000-0  41730-3 0  9997
2 36441  73.8339  60.4030 0104047 131.4768 229.5415 15.09397500890589
Epoch: 2026-04-30T13:29Z
TLE epoch observation values (Epoch: 2026-04-30T13:29:54.976Z)
Latitude
-0.00005°
Longitude
-0.58335°
Altitude
587.861 km
Speed
7.541 km/s
True Right ascension
04h 01m 36s
True Declination
0° 00' 00"
Sunlit
Object was in daylight at epoch
Visualization orbit readout
Latitude
Unknown
Longitude
Unknown
Altitude
Unknown
Speed
Unknown
Apparent Right ascension
Unknown
Apparent Declination
Unknown
Sunlit
N/A
Visualization observer readout
Local Sidereal Time
03:26:53
Azimuth
Unknown
Elevation
Unknown
Doppler factor
Unknown
Orbital elements
Apogee altitude
607.536 km
Perigee altitude
463.665 km
Semi-major axis
6,913.738 km
Eccentricity
0.0104
Inclination
73.8339°
RAAN
60.403°
Arg. of periapsis
131.4768°
True anomaly
228.64195°
Mean anomaly
229.5415°
Eccentric anomaly
229.09096°
Mean motion
3.77549 °/min
Orbital period
95.35 mins
BSTAR
0.0004173
Loading maneuver chart data...
Computing Atmospheric mass density...

Documentation

Showing up to 5 results
|